EW0415 Weather Reports


time (UTC)temp
F
wind
direction
speed
knots
gust
knots
rain 1hr
in
rain 24hr
in
rain mn
in
humidity
%
barometer
mb
20260903135516 56 0 0.0 0.0 0.00 0.00 0.00 72 1021.6
20260903135016 56 0 0.0 0.0 0.00 0.00 0.00 72 1021.7
20260903134531 56 0 0.0 0.0 0.00 0.00 0.00 72 1021.9
20260903134021 56 0 0.0 0.0 0.00 0.00 0.00 72 1021.9
20260903133515 56 0 0.0 0.0 0.00 0.00 0.00 72 1021.8
20260903133038 56 0 0.0 0.0 0.00 0.00 0.00 72 1022.0
20260903132522 56 0 0.0 0.0 0.00 0.00 0.00 72 1021.9
20260903132020 56 0 0.0 0.0 0.00 0.00 0.00 72 1022.1
20260903131536 56 0 0.0 0.0 0.00 0.00 0.00 72 1022.0
20260903131019 56 0 0.0 0.0 0.00 0.00 0.00 72 1022.1
20260903130519 56 0 0.0 0.0 0.00 0.00 0.00 72 1022.2
20260903130035 56 0 0.0 0.0 0.00 0.00 0.00 72 1022.2
20260903125518 56 0 0.0 0.0 0.00 0.00 0.00 72 1022.3
20260903125016 56 0 0.0 0.0 0.00 0.00 0.00 72 1022.3
20260903124543 56 0 0.0 0.0 0.00 0.00 0.00 72 1022.4
20260903124019 56 0 0.0 0.0 0.00 0.00 0.00 72 1022.3
20260903123522 56 0 0.0 0.0 0.00 0.00 0.00 72 1022.4
20260903123036 56 0 0.0 0.0 0.00 0.00 0.00 72 1022.5
20260903122516 56 0 0.0 0.0 0.00 0.00 0.00 72 1022.6
20260903122016 56 0 0.0 0.0 0.00 0.00 0.00 72 1022.6
20260903121532 56 0 0.0 0.0 0.00 0.00 0.00 72 1022.9
20260903121017 56 0 0.0 0.0 0.00 0.00 0.00 71 1022.9
20260903120522 56 0 0.0 0.0 0.00 0.00 0.00 71 1022.8
20260903120031 56 0 0.0 0.0 0.00 0.00 0.00 71 1022.9
20260903115515 56 0 0.0 0.0 0.00 0.00 0.00 71 1023.0
20260903115019 56 0 0.0 0.0 0.00 0.00 0.00 71 1022.9
20260903114535 56 0 0.0 0.0 0.00 0.00 0.00 71 1023.0
20260903114021 56 0 0.0 0.0 0.00 0.00 0.00 70 1023.0
20260903113519 56 0 0.0 0.0 0.00 0.00 0.00 70 1023.0
20260903113033 56 0 0.0 0.0 0.00 0.00 0.00 70 1022.8
20260903112519 56 0 0.0 0.0 0.00 0.00 0.00 70 1022.8
20260903112019 56 0 0.0 0.0 0.00 0.00 0.00 70 1022.8
20260903111533 56 0 0.0 0.0 0.00 0.00 0.00 69 1022.8
20260903111018 57 0 0.0 0.0 0.00 0.00 0.00 69 1022.7
20260903110517 57 0 0.0 0.0 0.00 0.00 0.00 69 1022.7
20260903110036 57 0 0.0 0.0 0.00 0.00 0.00 68 1022.6
20260903105520 57 0 0.0 0.0 0.00 0.00 0.00 68 1022.6
20260903105021 57 0 0.0 0.0 0.00 0.00 0.00 68 1022.6
20260903104535 57 0 0.0 0.0 0.00 0.00 0.00 68 1022.6
20260903104022 57 0 0.0 0.0 0.00 0.00 0.00 67 1022.4
20260903103516 57 0 0.0 0.0 0.00 0.00 0.00 67 1022.5
20260903103032 57 0 0.0 0.0 0.00 0.00 0.00 67 1022.4
20260903102517 57 0 0.0 0.0 0.00 0.00 0.00 67 1022.2
20260903102019 58 0 0.0 0.0 0.00 0.00 0.00 66 1022.2
20260903101536 58 0 0.0 0.0 0.00 0.00 0.00 67 1022.2
20260903101017 58 0 0.0 0.0 0.00 0.00 0.00 67 1022.0
20260903100519 58 0 0.0 0.0 0.00 0.00 0.00 67 1022.0
20260903100036 58 0 0.0 0.0 0.00 0.00 0.00 67 1021.9
20260903095525 58 0 0.0 0.0 0.00 0.00 0.00 67 1021.8
20260903095019 58 0 0.0 0.0 0.00 0.00 0.00 67 1021.8
20260903094534 59 0 0.0 0.0 0.00 0.00 0.00 67 1021.8
20260903094016 59 0 0.0 0.0 0.00 0.00 0.00 67 1021.8
20260903093519 59 0 0.0 0.0 0.00 0.00 0.00 67 1021.8
20260903093035 59 0 0.0 0.0 0.00 0.00 0.00 67 1021.9
20260903092520 59 0 0.0 0.0 0.00 0.00 0.00 66 1021.9
20260903092018 59 0 0.0 0.0 0.00 0.00 0.00 66 1021.7
20260903091534 59 0 0.0 0.0 0.00 0.00 0.00 66 1021.7
20260903091016 59 0 0.0 0.0 0.00 0.00 0.00 66 1021.6
20260903090518 59 0 0.0 0.0 0.00 0.00 0.00 66 1021.6
20260903090034 59 0 0.0 0.0 0.00 0.00 0.00 66 1021.5
20260903085520 59 0 0.0 0.0 0.00 0.00 0.00 66 1021.5
20260903085022 59 0 0.0 1.7 0.00 0.00 0.00 65 1021.5
20260903084543 60 0 0.0 1.7 0.00 0.00 0.00 65 1021.5
20260903084016 60 0 0.0 1.7 0.00 0.00 0.00 65 1021.5
20260903083516 60 0 0.0 1.7 0.00 0.00 0.00 65 1021.6
20260903083035 60 0 0.0 2.6 0.00 0.00 0.00 65 1021.5
20260903082515 60 0 0.0 2.6 0.00 0.00 0.00 64 1021.4
20260903082018 60 0 0.0 2.6 0.00 0.00 0.00 64 1021.3
20260903081535 60 0 0.0 2.6 0.00 0.00 0.00 64 1021.3
20260903081017 61 238 0.0 2.6 0.00 0.00 0.00 64 1021.1
20260903080516 61 238 0.0 2.6 0.00 0.00 0.00 64 1021.2
20260903080041 61 238 0.0 2.6 0.00 0.00 0.00 64 1021.0
20260903075521 61 0 0.0 2.6 0.00 0.00 0.00 64 1021.0
20260903075019 61 0 0.0 2.6 0.00 0.00 0.00 64 1020.9
20260903074541 61 237 0.9 4.3 0.00 0.00 0.00 63 1020.9
20260903074024 61 238 0.9 4.3 0.00 0.00 0.00 64 1020.8
20260903073519 61 238 1.7 4.3 0.00 0.00 0.00 64 1020.8
20260903073033 61 241 0.9 4.3 0.00 0.00 0.00 63 1020.6
20260903072519 61 0 0.0 6.1 0.00 0.00 0.00 63 1020.7
20260903072018 62 246 1.7 6.1 0.00 0.00 0.00 62 1020.8
20260903071535 62 242 0.9 6.1 0.00 0.00 0.00 62 1020.8
20260903071017 62 248 1.7 6.1 0.00 0.00 0.00 62 1020.9
20260903070515 62 270 0.9 5.2 0.00 0.00 0.00 62 1020.8
20260903070037 62 275 1.7 5.2 0.00 0.00 0.00 62 1020.9
20260903065521 63 0 1.7 5.2 0.00 0.00 0.00 62 1020.8
20260903065020 63 273 0.9 5.2 0.00 0.00 0.00 63 1020.6
20260903064533 62 273 0.9 5.2 0.00 0.00 0.00 62 1020.5
20260903064017 63 279 0.9 6.1 0.00 0.00 0.00 62 1020.5
20260903063522 63 304 1.7 6.1 0.00 0.00 0.00 61 1020.5
20260903063031 63 251 0.9 4.3 0.00 0.00 0.00 62 1020.5
20260903062518 63 0 0.9 7.0 0.00 0.00 0.00 61 1020.5
20260903062019 63 275 1.7 7.0 0.00 0.00 0.00 61 1020.5
20260903061538 63 215 2.6 5.2 0.00 0.00 0.00 61 1020.5
20260903061022 63 222 1.7 6.1 0.00 0.00 0.00 61 1020.5
20260903060518 63 202 0.9 9.6 0.00 0.00 0.00 62 1020.4
20260903060041 63 252 2.6 9.6 0.00 0.00 0.00 63 1020.5
20260903055519 63 113 1.7 7.0 0.00 0.00 0.00 65 1020.5
20260903055020 63 226 1.7 7.0 0.00 0.00 0.00 67 1020.4
20260903054539 63 205 1.7 7.0 0.00 0.00 0.00 68 1020.6
20260903054019 62 228 1.7 9.6 0.00 0.00 0.00 68 1020.5
20260903053522 62 229 2.6 9.6 0.00 0.00 0.00 67 1020.6
20260903053045 62 249 1.7 8.7 0.00 0.00 0.00 67 1020.4
20260903052521 62 256 1.7 8.7 0.00 0.00 0.00 67 1020.4
20260903052016 62 206 2.6 8.7 0.00 0.00 0.00 67 1020.4
20260903051537 62 256 2.6 7.8 0.00 0.00 0.00 67 1020.3
20260903051017 62 268 1.7 8.7 0.00 0.00 0.00 68 1020.3
20260903050519 62 203 3.5 8.7 0.00 0.00 0.00 68 1020.3
20260903050038 62 148 1.7 6.1 0.00 0.00 0.00 69 1020.3
20260903045519 62 0 0.9 7.0 0.00 0.00 0.00 69 1020.2
20260903045016 62 257 1.7 13.0 0.00 0.00 0.00 69 1020.2
20260903044532 62 236 2.6 13.0 0.00 0.00 0.00 69 1020.2
20260903044018 62 259 1.7 7.8 0.00 0.00 0.00 70 1020.2
20260903043520 62 201 2.6 8.7 0.00 0.00 0.00 69 1020.1
20260903043035 62 250 2.6 8.7 0.00 0.00 0.00 69 1020.1
20260903042517 62 238 3.5 8.7 0.00 0.00 0.00 69 1020.1
20260903042022 63 226 0.9 7.0 0.00 0.00 0.00 70 1020.0
20260903041535 62 208 0.0 5.2 0.00 0.00 0.00 70 1020.0
20260903041019 63 202 1.7 7.8 0.00 0.00 0.00 69 1020.1
20260903040517 63 206 1.7 7.8 0.00 0.00 0.00 70 1020.0
20260903040037 63 222 0.9 5.2 0.00 0.00 0.00 70 1020.0
20260903035516 63 223 0.9 9.6 0.00 0.00 0.00 70 1020.1
20260903035018 63 0 0.9 9.6 0.00 0.00 0.00 70 1020.1
20260903034531 63 197 2.6 9.6 0.00 0.00 0.00 71 1020.0
20260903034019 63 240 1.7 7.0 0.00 0.00 0.00 72 1020.1
20260903033517 63 293 0.9 7.0 0.00 0.00 0.00 73 1020.0
20260903033034 63 267 1.7 7.0 0.00 0.00 0.00 74 1020.1
20260903032523 63 251 1.7 5.2 0.00 0.00 0.00 74 1020.2
20260903032022 63 252 1.7 6.1 0.00 0.00 0.00 75 1020.1
20260903031534 62 251 1.7 6.1 0.00 0.00 0.00 75 1020.1
20260903031019 62 239 1.7 6.1 0.00 0.00 0.00 76 1020.2
20260903030516 62 235 1.7 7.8 0.00 0.00 0.00 77 1020.2
20260903030033 62 255 2.6 7.8 0.00 0.00 0.00 77 1020.1
20260903025519 62 210 2.6 5.2 0.00 0.00 0.00 78 1020.1
20260903025016 61 190 1.7 6.1 0.00 0.00 0.00 79 1020.2
20260903024535 61 225 1.7 8.7 0.00 0.00 0.00 79 1020.1
20260903024016 61 230 2.6 8.7 0.00 0.00 0.00 80 1020.1
20260903023517 61 209 0.9 9.6 0.00 0.00 0.00 81 1020.2
20260903023034 61 205 1.7 9.6 0.00 0.00 0.00 82 1020.3
20260903022520 61 213 2.6 7.8 0.00 0.00 0.00 82 1020.2
20260903022019 61 270 0.9 6.1 0.00 0.00 0.00 83 1020.3
20260903021534 61 263 1.7 6.1 0.00 0.00 0.00 83 1020.2
20260903021020 61 248 1.7 6.1 0.00 0.00 0.00 84 1020.2
20260903020516 61 199 0.9 3.5 0.00 0.00 0.00 83 1020.2
20260903020036 61 0 0.0 4.3 0.00 0.00 0.00 83 1020.3
20260903015520 61 194 0.9 4.3 0.00 0.00 0.00 83 1020.3
20260903015016 60 196 0.0 3.5 0.00 0.00 0.00 84 1020.4
20260903014532 60 0 0.0 6.1 0.00 0.00 0.00 83 1020.3
20260903014018 60 194 1.7 8.7 0.00 0.00 0.00 82 1020.3
20260903013515 60 271 2.6 10.4 0.00 0.00 0.00 82 1020.3
20260903013035 60 329 2.6 10.4 0.00 0.00 0.00 81 1020.2
20260903012521 60 330 3.5 8.7 0.00 0.00 0.00 81 1020.1
20260903012015 60 271 3.5 9.6 0.00 0.00 0.00 81 1020.1
20260903011535 60 265 3.5 9.6 0.00 0.00 0.00 81 1020.1
20260903011021 60 265 3.5 8.7 0.00 0.00 0.00 81 1020.1
20260903010519 60 264 2.6 7.0 0.00 0.00 0.00 82 1020.0
20260903010032 60 336 3.5 8.7 0.00 0.00 0.00 82 1020.1
20260903005518 60 318 2.6 9.6 0.00 0.00 0.00 82 1020.3
20260903005020 60 266 2.6 9.6 0.00 0.00 0.00 82 1020.2
20260903004532 60 312 2.6 7.8 0.00 0.00 0.00 83 1020.2
20260903004018 60 309 2.6 8.7 0.00 0.00 0.00 83 1020.1
20260903003520 59 318 3.5 8.7 0.00 0.00 0.00 83 1020.3
20260903003032 59 304 3.5 9.6 0.00 0.00 0.00 84 1020.2
20260903002521 59 325 4.3 9.6 0.00 0.00 0.00 84 1020.2
20260903002020 59 292 3.5 8.7 0.00 0.00 0.00 84 1020.3
20260903001533 59 296 2.6 9.6 0.00 0.00 0.00 84 1020.3
20260903001022 59 301 2.6 9.6 0.00 0.00 0.00 84 1020.3
20260903000519 59 317 2.6 10.4 0.00 0.00 0.00 85 1020.3
20260903000036 58 302 4.3 10.4 0.00 0.00 0.00 85 1020.3
20260902235518 58 315 2.6 8.7 0.00 0.00 0.00 85 1020.3
20260902235019 58 320 2.6 8.7 0.00 0.00 0.00 85 1020.2
20260902234533 58 327 3.5 11.3 0.00 0.00 0.00 85 1020.1
20260902234018 58 313 3.5 11.3 0.00 0.00 0.00 86 1020.1
20260902233520 57 284 3.5 9.6 0.00 0.00 0.00 86 1020.0
20260902233033 57 333 2.6 9.6 0.00 0.00 0.00 86 1019.9
20260902232519 57 308 3.5 9.6 0.00 0.00 0.00 86 1020.0
20260902232019 56 298 2.6 7.0 0.00 0.00 0.00 86 1019.9
20260902231534 55 314 0.9 4.3 0.00 0.00 0.00 86 1019.9
20260902231018 55 324 0.0 3.5 0.00 0.00 0.00 86 1019.8
20260902230518 55 323 0.9 3.5 0.00 0.00 0.00 86 1019.7
20260902230034 55 323 0.0 3.5 0.00 0.00 0.00 85 1019.8
20260902225516 54 323 0.9 4.3 0.00 0.00 0.00 85 1019.7
20260902225018 54 0 1.7 4.3 0.00 0.00 0.00 85 1019.6
20260902224542 54 331 0.9 3.5 0.00 0.00 0.00 85 1019.7
20260902224017 54 332 0.0 3.5 0.00 0.00 0.00 85 1019.6
20260902223521 53 332 0.9 3.5 0.00 0.00 0.00 85 1019.5
20260902223036 53 331 0.0 2.6 0.00 0.00 0.00 85 1019.3
20260902222522 53 0 0.0 2.6 0.00 0.00 0.00 85 1019.3
20260902222022 53 0 0.0 2.6 0.00 0.00 0.00 84 1019.2
20260902221540 53 0 0.0 3.5 0.00 0.00 0.00 84 1019.2
20260902221019 53 331 0.0 3.5 0.00 0.00 0.00 84 1019.0
20260902220517 53 331 0.0 4.3 0.00 0.00 0.00 84 1019.0
20260902220044 53 0 0.0 4.3 0.00 0.00 0.00 84 1018.9
20260902215518 53 331 0.9 3.5 0.00 0.00 0.00 84 1018.9
20260902215015 53 324 0.9 3.5 0.00 0.00 0.00 84 1018.8
20260902214535 53 324 0.9 3.5 0.00 0.00 0.00 84 1018.8
20260902214016 53 0 0.0 4.3 0.00 0.00 0.00 84 1018.6
20260902213515 53 0 0.9 4.3 0.00 0.00 0.00 83 1018.6
20260902213033 53 0 0.0 3.5 0.00 0.00 0.00 83 1018.5
20260902212521 53 0 0.9 3.5 0.00 0.00 0.00 83 1018.4
20260902212019 53 321 0.9 4.3 0.00 0.00 0.00 83 1018.4
20260902211535 53 321 0.9 4.3 0.00 0.00 0.00 83 1018.3
20260902211019 53 321 0.9 4.3 0.00 0.00 0.00 83 1018.2
20260902210518 53 320 0.0 4.3 0.00 0.00 0.00 83 1018.3
20260902210106 53 319 0.9 4.3 0.00 0.00 0.00 83 1018.2
20260902205518 53 316 0.9 4.3 0.00 0.00 0.00 82 1018.1
20260902205019 54 314 0.9 3.5 0.00 0.00 0.00 82 1018.0
20260902204541 54 313 0.9 3.5 0.00 0.00 0.00 82 1017.9
20260902204019 54 310 0.0 3.5 0.00 0.00 0.00 82 1017.8
20260902203516 55 310 0.9 3.5 0.00 0.00 0.00 82 1017.9
20260902203036 55 309 0.9 6.1 0.00 0.00 0.00 82 1017.9
20260902202518 56 307 0.9 6.1 0.00 0.00 0.00 83 1017.9
20260902202021 56 304 1.7 6.1 0.00 0.00 0.00 83 1017.7
20260902201536 56 0 1.7 4.3 0.00 0.00 0.00 83 1017.6
20260902201018 55 300 1.7 7.0 0.00 0.00 0.00 83 1017.6
20260902200519 55 302 2.6 7.0 0.00 0.00 0.00 83 1017.6
20260902200037 55 0 1.7 7.0 0.00 0.00 0.00 82 1017.6
20260902195518 55 289 0.9 7.0 0.00 0.00 0.00 82 1017.3
20260902195018 55 288 0.9 7.0 0.00 0.00 0.00 82 1017.3
20260902194536 55 286 1.7 6.1 0.00 0.00 0.00 81 1017.2
20260902194015 55 284 1.7 6.1 0.00 0.00 0.00 81 1017.2
20260902193520 55 296 1.7 7.0 0.00 0.00 0.00 81 1017.1
20260902193035 55 292 1.7 7.8 0.00 0.00 0.00 81 1017.2
20260902192519 55 289 1.7 7.8 0.00 0.01 0.00 80 1017.1
20260902192019 55 290 2.6 7.8 0.00 0.01 0.00 80 1016.9
20260902191539 56 297 0.9 7.8 0.00 0.01 0.00 80 1016.9
20260902191018 56 294 1.7 7.8 0.00 0.01 0.00 79 1016.7
20260902190517 56 298 2.6 7.8 0.00 0.01 0.00 79 1016.7
20260902190040 56 307 1.7 7.8 0.00 0.01 0.00 79 1016.6
20260902185518 56 311 1.7 7.8 0.00 0.01 0.00 79 1016.6
20260902185015 56 275 2.6 7.0 0.00 0.01 0.00 79 1016.5
20260902184536 56 311 2.6 7.0 0.00 0.01 0.00 78 1016.6
20260902184021 56 294 2.6 7.0 0.00 0.01 0.00 78 1016.5
20260902183515 56 284 1.7 8.7 0.00 0.01 0.00 78 1016.6
20260902183035 56 255 2.6 10.4 0.00 0.01 0.00 78 1016.5
20260902182523 56 311 3.5 10.4 0.00 0.01 0.00 78 1016.6
20260902182019 56 313 4.3 10.4 0.00 0.01 0.00 78 1016.5
20260902181533 56 298 1.7 7.8 0.00 0.01 0.00 78 1016.6
20260902181023 56 318 3.5 7.8 0.00 0.01 0.00 77 1016.5
20260902180516 56 303 2.6 13.0 0.00 0.01 0.00 77 1016.5
20260902180043 56 281 3.5 13.0 0.00 0.01 0.00 77 1016.5
20260902175516 56 320 2.6 7.8 0.00 0.01 0.00 77 1016.5
20260902175018 56 311 2.6 7.8 0.00 0.01 0.00 76 1016.4
20260902174535 56 300 2.6 7.0 0.00 0.01 0.00 76 1016.4
20260902174019 56 281 2.6 7.0 0.00 0.01 0.00 76 1016.6
20260902173520 56 305 1.7 7.8 0.00 0.01 0.00 75 1016.6
20260902173035 56 289 1.7 7.8 0.00 0.01 0.00 75 1016.5
20260902172519 56 309 1.7 7.8 0.00 0.01 0.00 75 1016.6
20260902172019 56 257 3.5 7.8 0.00 0.01 0.00 75 1016.7
20260902171538 56 296 2.6 7.8 0.00 0.01 0.00 74 1016.6
20260902171020 56 256 4.3 7.8 0.00 0.01 0.00 74 1016.8
20260902170515 56 280 2.6 8.7 0.00 0.01 0.00 74 1016.6
20260902170035 56 299 2.6 8.7 0.00 0.01 0.00 74 1016.9
20260902165520 56 316 3.5 8.7 0.00 0.01 0.00 73 1016.8
20260902165017 56 302 2.6 7.0 0.00 0.01 0.00 73 1016.8
20260902164535 56 269 2.6 9.6 0.00 0.01 0.00 73 1017.0
20260902164017 56 292 1.7 9.6 0.00 0.01 0.00 72 1017.0
20260902163516 56 310 3.5 9.6 0.00 0.01 0.00 72 1017.0
20260902163033 56 304 2.6 8.7 0.00 0.01 0.00 72 1017.0
20260902162518 56 313 2.6 8.7 0.00 0.01 0.00 72 1017.1
20260902162018 56 297 3.5 8.7 0.00 0.01 0.00 73 1017.0
20260902161537 56 290 1.7 7.0 0.00 0.01 0.00 73 1017.3
20260902161018 56 291 0.9 7.0 0.00 0.01 0.00 73 1017.2
20260902160515 56 295 1.7 7.0 0.00 0.01 0.00 73 1017.4
20260902160037 56 269 0.9 5.2 0.00 0.01 0.00 73 1017.2
20260902155518 56 267 0.0 5.2 0.00 0.01 0.00 73 1017.3
20260902155020 56 269 0.9 6.1 0.00 0.01 0.00 73 1017.2
20260902154533 56 311 1.7 6.1 0.00 0.01 0.00 73 1017.3
20260902154019 56 0 0.9 7.8 0.00 0.01 0.00 73 1017.1
20260902153516 56 267 1.7 7.8 0.00 0.01 0.00 74 1017.3
20260902153039 56 273 2.6 7.8 0.00 0.01 0.00 74 1017.3
20260902152519 55 270 3.5 7.0 0.00 0.01 0.00 74 1017.5
20260902152018 55 0 1.7 7.8 0.00 0.01 0.00 75 1017.4
20260902151544 55 312 2.6 7.8 0.00 0.01 0.00 75 1017.4
20260902151016 55 285 2.6 7.0 0.00 0.01 0.00 75 1017.4
20260902150517 55 284 1.7 7.0 0.00 0.01 0.00 75 1017.4
20260902150037 55 283 1.7 6.1 0.00 0.01 0.00 75 1017.4
20260902145521 55 282 1.7 6.1 0.00 0.01 0.00 76 1017.3
20260902145017 55 278 1.7 7.8 0.00 0.01 0.00 76 1017.4
20260902144538 55 280 1.7 7.8 0.00 0.01 0.00 76 1017.3
20260902144018 55 277 2.6 7.8 0.00 0.01 0.00 76 1017.6
20260902143516 55 296 2.6 7.0 0.00 0.01 0.00 76 1017.4
20260902143036 55 286 0.9 6.1 0.00 0.01 0.00 77 1017.5
20260902142516 55 282 1.7 6.1 0.00 0.01 0.01 77 1017.4
20260902142016 55 281 1.7 6.1 0.00 0.01 0.01 77 1017.7
20260902141536 55 278 1.7 6.1 0.00 0.01 0.01 77 1017.6
20260902141021 55 277 0.9 5.2 0.00 0.01 0.01 77 1017.7
20260902140520 55 275 0.9 6.1 0.00 0.01 0.01 77 1017.8
20260902140036 55 274 0.9 6.1 0.00 0.01 0.01 77 1017.7